Regional Weather Roundup
Issued by NWS Wilmington, NC

Home | Current Version | Previous Version | Text Only | Print | Product List | Glossary On
Versions: 1 2 3 4 5 6 7 8 9 10 11 12 13 14 15 16 17 18 19 20 21 22 23 24 25 26 27 28 29 30 31 32 33 34 35 36 37 38 39 40 41 42 43 44 45 46 47 48 49 50
000
ASUS42 KILM 200210
RWRILM
RWRILM
REGIONAL HOURLY WEATHER ROUNDUP
NATIONAL WEATHER SERVICE WILMINGTON NC
1000 PM EDT FRI SEP 19 2014

NOTE: "FAIR" INDICATES FEW OR NO CLOUDS BELOW 12,000 FEET WITH NO
SIGNIFICANT WEATHER AND/OR OBSTRUCTIONS TO VISIBILITY.

...............WFO WILMINGTON COUNTY WARNING AREA...............

......COASTAL NC AND SC COUNTIES......

CITY           SKY/WX    TMP DP  RH WIND       PRES   REMARKS
WILMINGTON     CLOUDY    70  62  76 NE12      30.17R
SOUTHPORT      CLOUDY    73  64  73 NE14G23   30.14S
N MYRTLE BEACH CLOUDY    73  65  75 NE12      30.13S
MYRTLE BEACH   MOCLDY    73  64  73 NE14      30.13R

......INLAND NC AND SC COUNTIES.......

CITY           SKY/WX    TMP DP  RH WIND       PRES   REMARKS
LUMBERTON      PTCLDY    70  60  70 E8        30.17R
ELIZABETHTOWN  PTCLDY    68  61  76 CALM      30.18R
WHITEVILLE     MOCLDY    71  63  76 NE6       30.16S
FLORENCE       PTCLDY    70  65  84 NE7       30.16R
DARLINGTON     CLEAR     70  63  78 NE6       30.18R

....................REST OF NORTH CAROLINA......................

.........EASTERN NC.........

CITY           SKY/WX    TMP DP  RH WIND       PRES   REMARKS
CAPE HATTERAS  MOCLDY    70  61  73 NE8G20    30.20S
JACKSONVILLE   MOCLDY    66  57  72 NE9       30.20S
MOREHEAD CITY  CLOUDY    72  63  73 NE7       30.19S
KENANSVILLE    PTCLDY    67  59  77 CALM      30.21S
NEW BERN       MOCLDY    70  59  68 NE9       30.22R
ELIZABETH CITY CLEAR     68  60  75 NE7       30.25R

.........CENTRAL NC.........

CITY           SKY/WX    TMP DP  RH WIND       PRES   REMARKS
RALEIGH DURHAM PTCLDY    68  56  65 E7        30.23R
ROCKY MOUNT    CLEAR     64  58  80 NE3       30.24R
ROANOKE RAPIDS NOT AVBL
FAYETTEVILLE   CLEAR     68  60  75 NE5       30.18S
HOFFMAN        MOCLDY    68  61  77 E7        30.21S

.........WESTERN NC.........

CITY           SKY/WX    TMP DP  RH WIND       PRES   REMARKS
CHARLOTTE      PTCLDY    70  59  68 NE8       30.20R
GREENSBORO     PTCLDY    64  62  93 NE6       30.24R
HICKORY        NOT AVBL
BOONE          NOT AVBL
ASHEVILLE      NOT AVBL

.....................REST OF SOUTH CAROLINA.....................

.........EASTERN SC.........

CITY           SKY/WX    TMP DP  RH WIND       PRES   REMARKS
CHARLESTON     CLOUDY    72  68  87 NE9       30.11R
BEAUFORT MCAS  CLOUDY    74  68  81 W9        30.09R
HILTON HEAD    NOT AVBL

.........CENTRAL SC.........

CITY           SKY/WX    TMP DP  RH WIND       PRES   REMARKS
COLUMBIA       PTCLDY    72  65  78 E3        30.14S
ORANGEBURG     PTCLDY    71  67  87 NE8       30.12R
SUMTER SHAW    CLEAR     69  64  84 NE9       30.13S

.........WESTERN SC.........

CITY           SKY/WX    TMP DP  RH WIND       PRES   REMARKS
GREENVILLE     NOT AVBL
ROCK HILL      PTCLDY    65  60  84 CALM      30.20R
ANDERSON       CLOUDY    70  60  70 NE7       30.17R
CLEMSON        NOT AVBL
GREENWOOD      PTCLDY    67  64  90 N3        30.18R


...................COASTAL AND OFFSHORE REPORTS..................

................LOCAL PIERS AND NC RESERVE................


STATION/POSITION TIME  SKY/WX   TEMP    WIND        PRES    VSBY
                                AIR SEA DIR/SP/G
                 (UTC)          (F)     (DEG/KT/KT) (MB)    (MI)
JOHNY MRCER PIER 0200            76 80   50/ 24/ 29 1020.7F
NC RESRV MASNBRO NOT AVBL
OCEAN CREST PIER 0200            76 80   30/ 17/ 24 1019.4F
SPRINGMAID  PIER 0200            75 81   30/ 20/ 23 1020.1R


................COASTAL AND OFFSHORE BUOYS................


STATION/POSITION TIME  SKY/WX   TEMP    WIND        PRES    VSBY
                                AIR SEA DIR/SP/G
                 (UTC)          (F)     (DEG/KT/KT) (MB)    (MI)
DIMNDSHOAL 41025 0200            76      60/ 17/ 21 1021.9R
WVE H/P(F/S)=  7/ 7 WND WVE H/P(F/S)=  7/ 7 SWL H/P/D(F/S/D)=  2/100/11

CAPE LOOKOUT     0100            75      40/ 23/ 26 1021.9R
ONSLOW BAY 41036 0200            76 83   60/ 19/ 21 1021.4R
WVE H/P(F/S)=  7/ 6 WND WVE H/P(F/S)=  7/ 6 SWL H/P/D(F/S/D)=  2/110/10

5 WRITEBCH 41038 0100            74 80   60/ 21/ 27   N/A
MASONBORO  41110 0200               80                N/A
WVE H/P(F/S)=  6/ 6 WND WVE H/P(F/S)=  7/ 6

WILM HARBR 41108 0200               80                N/A
WVE H/P(F/S)=  5/ 6 WND WVE H/P(F/S)=  5/ 6

27WRITEBCH 41037 0100            76 80   80/ 21/ 23 1020.2S
FRYING PAN 41013 NOT AVBL
SUNST NRSH 41024 0100            75      50/ 16/ 19 1020.0R
CAPRS NRSH 41029 0100            73     110/ 14/ 17   N/A
EDISTO     41004 0200            77 82   90/ 25/ 29 1017.1R
WVE H/P(F/S)=  6/ 6 WND WVE H/P(F/S)=  7/ 6 SWL H/P/D(F/S/D)=  2/10



..........OFFSHORE BUOYS BEYOND 100 NM OFFSHORE...........
.....IN A TRIANGLE---HAT TO BERMUDA TO BAHAMAS TO HAT.....


STATION/POSITION TIME  SKY/WX   TEMP    WIND        PRES    VSBY
                                AIR SEA DIR/SP/G
                 (UTC)          (F)     (DEG/KT/KT) (MB)    (MI)
150E HAT   41001 NOT AVBL
W BERMUDA  41048 0147            80 81   70/ 14/ 16 1019.2S
WVE H/P(F/S)=  4/ 8 WND WVE H/P(F/S)=  3/ 5 SWL H/P/D(F/S/D)=  3/ 20/ 8

ATLANTIC S 41049 0134            82 85  130/  4/  6 1019.1R
WVE H/P(F/S)=  5/ 8 WND WVE H/P(F/S)=  2/ 4 SWL H/P/D(F/S/D)=  5/300/ 8

E BAHAMAS  41046 0142            84 85  130/ 14/ 16 1016.7R
WVE H/P(F/S)=  4/ 8 WND WVE H/P(F/S)=  2/ 5 SWL H/P/D(F/S/D)=  3/120/ 8

NE BAHAMAS 41047 0118            80 83  160/ 16/ 17 1016.9
WVE H/P(F/S)=  2/ 7 WND WVE H/P(F/S)=  2/ 6 SWL H/P/D(F/S/D)=  2/ 50/ 7

120E CANVRL41010 0200            83 85   60/ 10/ 14 1014.5R
WVE H/P(F/S)=  4/ 5 WND WVE H/P(F/S)=  2/ 5 SWL H/P/D(F/S/D)=  3/ 50/ 9


END


USA.gov is the U.S. government's official web portal to all federal, state and local government web resources and services.